Regional Weather Roundup
Issued by NWS

Home | Current Version | Previous Version | Graphics & Text | Print | Product List | Glossary On
Versions: 1 2 3 4 5 6 7 8 9 10 11 12 13 14 15 16 17 18 19 20 21 22 23 24 25 26 27 28 29 30 31 32 33 34 35 36 37 38 39 40 41 42 43 44 45 46 47 48 49 50
704
ASUS43 KTOP 300808
RWRKS

WEATHER ROUNDUP FOR KANSAS
NATIONAL WEATHER SERVICE GOODLAND KS
300 AM CDT TUE MAY 30 2017

NOTE:  "FAIR" INDICATES FEW OR NO CLOUDS BELOW 12,000 FEET WITH NO
SIGNIFICANT WEATHER AND/OR OBSTRUCTIONS TO VISIBILITY.

KSZ001>006-013>018-027>032-041>047-300900-
NORTHWEST KANSAS

CITY           SKY/WX    TMP DP  RH WIND       PRES   REMARKS
GOODLAND       CLEAR     51  47  86 SW9       30.16F
HAYS           CLOUDY    57  51  80 W8        30.12S
HILL CITY      CLEAR     58  52  80 W12       30.12R
RUSSELL        CLOUDY    57  50  77 W9        30.10R
$$

KSZ061>065-074>080-084>089-300900-
SOUTHWEST KANSAS

CITY           SKY/WX    TMP DP  RH WIND       PRES   REMARKS
DODGE CITY     CLOUDY    59  54  83 S7        30.16F
ELKHART          N/A     52  44  74 MISG        N/A
GARDEN CITY    CLOUDY    57  53  86 CALM      30.15F
GREAT BEND     CLOUDY    62  54  74 W10       30.12S
LIBERAL        CLOUDY    58  55  90 SE3       30.17F
PRATT          CLOUDY    58  53  84 SW9       30.15F
$$

KSZ066>073-081>083-090>101-300900-
SOUTHEAST KANSAS

CITY           SKY/WX    TMP DP  RH WIND       PRES   REMARKS
CHANUTE        PTCLDY    56  53  90 CALM      30.06S
COFFEYVILLE    PTCLDY    60  57  89 CALM      30.06R
HUTCHINSON     CLOUDY    56  53  90 CALM      30.07F
MEDICINE LODGE   N/A     62  54  74 NW9       30.14R
NEWTON         CLOUDY    62  49  62 CALM      30.08S
PARSONS        CLEAR     56  53  90 CALM      30.07S
WICHITA INTL   CLOUDY    64  53  67 CALM      30.06F
WICHITA JABRA  CLOUDY    62  51  67 CALM      30.06F
WICHITA MCCONL CLOUDY    67  49  52 E3        30.06F
WINFIELD       CLOUDY    61  53  75 CALM      30.07F
$$

KSZ007>012-019>026-033>040-048>060-102>105-300900-
NORTHEAST KANSAS

CITY           SKY/WX    TMP DP  RH WIND       PRES   REMARKS
CONCORDIA      CLEAR     56  43  61 S5        30.08S
EMPORIA        PTCLDY    60  50  69 CALM      30.08F
LAWRENCE       CLOUDY    52  50  93 NW3       30.07F
MANHATTAN      PTCLDY    52  49  89 CALM      30.08S
MARYSVILLE     MOCLDY    50  45  81 S3        30.08S
OLATHE IND     CLEAR     58  44  60 CALM      30.08S
OLATHE EXE     CLEAR     62  43  49 N5        30.07S
SALINA         CLOUDY    60  51  72 CALM      30.08F
TOPEKA BILLARD PTCLDY    57  53  86 CALM      30.07S
TOPEKA FORBES  PTCLDY    55  50  83 CALM      30.07S
$$




USA.gov is the U.S. government's official web portal to all federal, state and local government web resources and services.